[[{"header":{"parameterUnit":"m.s-1","parameterCategory":1,"la1":30.2991,"la2":30.254,"lo1":-89.0895,"lo2":-89.0444,"dy":0.0017,"dx":0.0017,"nx":28,"ny":28,"refTime":"2025-02-26T03:00:00:Z","depth":0,"parameterNumber":2,"parameterNumberName":"U-component_of_WINDS"},"data":[0,0,0,0,0,0,0,0,0,0,0,0,0,0,0,0,0,0,0,0,0,0,0,0,0,0,0,0,0,0,0,0,0,0,0,0,0,0,0,0,0,0,0,0,0,0,0,0,0,0,0,0,0,0,0,0,0,0,0.1015,0.1015,0,0.0979,0.0978,0.0978,0.092,0.0919,0.0918,0.0917,0.0883,0.0883,0.0883,0,0,0,0,0,0,0,0,0,0,0,0,0,0.1037,0.1037,0.1015,0.1015,0.1014,0.0979,0.0978,0.0978,0.092,0.0919,0.0917,0.0916,0.0883,0.0883,0.0883,0,0,0,0,0,0,0,0,0,0,0,0,0,0.1017,0.1037,0.1015,0.0981,0.0978,0.0979,0.0978,0.0978,0.092,0.0919,0.0917,0.0916,0.0883,0.0883,0.0883,0.0916,0,0,0.0883,0.0883,0,0,0,0,0,0,0,0,0.1018,0.1016,0.0987,0.0983,0.098,0.0952,0.0973,0.0957,0.0921,0.0942,0.0917,0.0915,0.0907,0.0905,0.0902,0.0914,0.0913,0.0883,0.0883,0.0883,0.0883,0,0,0,0,0,0,0,0.1019,0.1017,0.1001,0.0986,0.0982,0.0968,0.0964,0.097,0.0934,0.094,0.0936,0.0932,0.0905,0.0902,0.0901,0.0912,0.0883,0.0883,0.0883,0.0884,0.095,0.0951,0,0,0,0,0,0,0.1026,0.1019,0.1002,0.1,0.0995,0.0969,0.0964,0.0963,0.0934,0.0928,0.0934,0.093,0.0903,0.0901,0.0899,0.0937,0.0883,0.0884,0.0884,0.0948,0.095,0.0952,0,0,0,0,0,0,0.1026,0.1025,0.1004,0.1008,0.1004,0.097,0.097,0.0963,0.096,0.0929,0.0923,0.0937,0.0901,0.0899,0.0912,0.0935,0.0884,0.0884,0.0946,0.0948,0.0951,0.1011,0,0,0,0,0,0,0.1027,0.1025,0.1037,0.1009,0.1004,0.1016,0.0971,0.0963,0.096,0.0954,0.0931,0.0925,0.09,0.0912,0.0912,0.0934,0.0884,0.0944,0.0947,0.095,0.1007,0.1015,0.1023,0,0,0,0,0,0.1028,0.1056,0.1038,0.1036,0.1018,0.1018,0.1015,0.0985,0.0962,0.0974,0.0954,0.0926,0.0932,0.0914,0.0913,0.0936,0.0942,0.0946,0.095,0.1004,0.1014,0.1022,0,0,0,0,0,0,0.109,0.1052,0.1031,0.1051,0.1038,0.1008,0.1022,0.0997,0.0991,0.0986,0.0949,0.0944,0.0962,0.095,0.093,0.0966,0.0933,0.0936,0.0974,0.0983,0.0991,0.0994,0.0884,0,0,0,0,0,0.1105,0.1107,0.1074,0.1095,0.1089,0.1057,0.1055,0.1033,0.1018,0.1013,0.0994,0.0982,0.098,0.0981,0.0978,0.1004,0.0999,0.1019,0.1027,0.1033,0.1038,0.1051,0.106,0.0964,0.0964,0.0964,0,0,0.1138,0.1118,0.1121,0.1107,0.1094,0.1097,0.1053,0.1058,0.1061,0.1014,0.1025,0.101,0.0994,0.1014,0.1021,0.1004,0.1063,0.1038,0.1044,0.1045,0.1056,0.1065,0.1073,0.0967,0.0966,0.0966,0,0,0.12,0.1184,0.12,0.1187,0.1168,0.1146,0.1149,0.1123,0.1111,0.1121,0.1086,0.1088,0.1087,0.1077,0.1072,0.1128,0.1103,0.1128,0.117,0.1183,0.1191,0.1197,0.1219,0.1227,0.1132,0.1132,0.1133,0,0.1244,0.1247,0.1211,0.1219,0.1214,0.1169,0.1185,0.1175,0.1156,0.1154,0.1134,0.1132,0.1118,0.1134,0.1148,0.1145,0.1149,0.1132,0.1192,0.1199,0.1204,0.1224,0.1232,0.1136,0.1135,0.1135,0.1135,0,0.1302,0.1305,0.1319,0.1301,0.1297,0.1309,0.1276,0.1276,0.1254,0.1234,0.1245,0.1226,0.1219,0.122,0.1199,0.1234,0.1224,0.1199,0.1165,0.1217,0.1236,0.1243,0.1141,0.1139,0.1138,0.1138,0,0,0.1404,0.1364,0.1371,0.1362,0.1336,0.1338,0.1347,0.1339,0.1341,0.1328,0.1337,0.1336,0.1312,0.1306,0.1282,0.1294,0.1341,0.1267,0.1266,0.1283,0.138,0.14,0.141,0.1323,0.1324,0.1325,0.1382,0,0.1462,0.1476,0.1443,0.1465,0.1468,0.1425,0.1433,0.1419,0.14,0.14,0.138,0.138,0.1348,0.1344,0.1353,0.1333,0.136,0.1328,0.1331,0.1332,0.1339,0.1419,0.1441,0.1495,0.1388,0.139,0.139,0,0.1532,0.1523,0.1545,0.1517,0.1517,0.1525,0.1514,0.1514,0.1497,0.1483,0.1475,0.1447,0.1455,0.1421,0.1432,0.1412,0.141,0.1401,0.1402,0.1403,0.1366,0.1424,0.1512,0.1521,0.1401,0.14,0.1399,0,0.1606,0.1599,0.1611,0.1604,0.1572,0.1579,0.1566,0.1547,0.1543,0.1534,0.1532,0.1524,0.1521,0.1516,0.1486,0.1464,0.1502,0.1465,0.1491,0.1492,0.1503,0.1503,0.1595,0.15,0.1499,0.1499,0.1499,0,0.1676,0.1692,0.1643,0.1651,0.1667,0.1629,0.1647,0.163,0.1613,0.1617,0.1579,0.1584,0.1544,0.1545,0.1522,0.1535,0.1534,0.1523,0.1517,0.1528,0.1529,0.1528,0.1524,0.1501,0.1501,0.1501,0.15,0,0.1762,0.1731,0.1741,0.1709,0.1701,0.1715,0.1687,0.1694,0.1672,0.1678,0.1677,0.1643,0.1642,0.1611,0.1604,0.1589,0.1612,0.1598,0.1618,0.1614,0.1643,0.1641,0.1738,0.1749,0.1646,0.1647,0.1648,0,0.181,0.1821,0.1789,0.1788,0.1777,0.1776,0.1772,0.1735,0.1733,0.1713,0.1722,0.1717,0.1712,0.1712,0.1688,0.1682,0.1669,0.1703,0.1668,0.1678,0.1671,0.1672,0.1673,0.1711,0.1713,0.1714,0.1715,0,0.1898,0.1881,0.1876,0.1866,0.1862,0.1852,0.184,0.1842,0.1801,0.1801,0.1798,0.1794,0.1785,0.1782,0.1771,0.1759,0.1731,0.1725,0.1731,0.1743,0.1755,0.175,0.164,0.1724,0.1723,0.1722,0.1722,0.1721,0.1967,0.1975,0.1953,0.1949,0.1936,0.1925,0.1929,0.1907,0.1904,0.1894,0.1871,0.1873,0.1855,0.1837,0.1827,0.1828,0.1811,0.1819,0.1822,0.1825,0.1831,0.1753,0.1826,0.1825,0.1825,0.1825,0.1825,0,0.2055,0.2038,0.2034,0.2018,0.2015,0.1986,0.1971,0.1971,0.1972,0.1956,0.1951,0.1948,0.1944,0.1919,0.1912,0.1918,0.1905,0.1917,0.1918,0.1915,0.1846,0.1842,0.1928,0.1928,0.1928,0.1928,0.1928,0.1928,0.21,0.2111,0.2092,0.2096,0.2079,0.2079,0.2073,0.2063,0.2051,0.2049,0.2045,0.2027,0.2008,0.1999,0.1995,0.1987,0.1987,0.2005,0.1993,0.193,0.192,0.1911,0.1907,0.2005,0.2005,0.2062,0.2063,0.2063]},{"header":{"parameterUnit":"m.s-1","parameterCategory":1,"la1":30.2991,"la2":30.254,"lo1":-89.0895,"lo2":-89.0444,"dy":0.0017,"dx":0.0017,"nx":28,"ny":28,"refTime":"2025-02-26T03:00:00:Z","depth":0,"parameterNumber":3,"parameterNumberName":"V-component_of_WINDS"},"data":[0,0,0,0,0,0,0,0,0,0,0,0,0,0,0,0,0,0,0,0,0,0,0,0,0,0,0,0,0,0,0,0,0,0,0,0,0,0,0,0,0,0,0,0,0,0,0,0,0,0,0,0,0,0,0,0,0,0,-0.0027,-0.0028,0,-0.0082,-0.0082,-0.0083,-0.0119,-0.0119,-0.0119,-0.0119,-0.0174,-0.0175,-0.0177,0,0,0,0,0,0,0,0,0,0,0,0,0,0.0047,0.0046,-0.0027,-0.0028,-0.0028,-0.0082,-0.0082,-0.0083,-0.0119,-0.0119,-0.0119,-0.012,-0.0174,-0.0175,-0.0177,0,0,0,0,0,0,0,0,0,0,0,0,0,0.0006,0.0046,-0.0027,-0.0053,-0.0055,-0.0081,-0.0082,-0.0083,-0.0119,-0.0119,-0.0119,-0.012,-0.0173,-0.0175,-0.0177,-0.0181,0,0,-0.0183,-0.0183,0,0,0,0,0,0,0,0,0.0009,0.0004,-0.0048,-0.0051,-0.0054,-0.0094,-0.0076,-0.0116,-0.0119,-0.0095,-0.0119,-0.012,-0.0147,-0.0151,-0.016,-0.0184,-0.0186,-0.0183,-0.0184,-0.0185,-0.0185,0,0,0,0,0,0,0,0.0012,0.0006,-0.0049,-0.0049,-0.0053,-0.0061,-0.0067,-0.0084,-0.0118,-0.0097,-0.0099,-0.0105,-0.0149,-0.0159,-0.0162,-0.0187,-0.0183,-0.0184,-0.0185,-0.0186,-0.0217,-0.0216,0,0,0,0,0,0,0.0018,0.0008,-0.0047,-0.005,-0.0023,-0.0062,-0.0069,-0.0081,-0.0118,-0.0124,-0.0105,-0.0107,-0.0155,-0.016,-0.0164,-0.0172,-0.0185,-0.0186,-0.0187,-0.0217,-0.0217,-0.0216,0,0,0,0,0,0,0.002,0.0014,-0.0045,-0.0022,-0.003,-0.0063,-0.0076,-0.0082,-0.0092,-0.0124,-0.0131,-0.0109,-0.0156,-0.0161,-0.0177,-0.0174,-0.0187,-0.0189,-0.0217,-0.0217,-0.0216,-0.0187,0,0,0,0,0,0,0.0022,0.0015,0.0012,-0.0022,-0.0031,-0.0057,-0.0076,-0.0082,-0.0095,-0.0098,-0.013,-0.0135,-0.0156,-0.0174,-0.0179,-0.0177,-0.019,-0.0218,-0.0217,-0.0217,-0.0188,-0.0186,-0.0183,0,0,0,0,0,0.0025,0.0023,0.0012,0.0006,-0.0035,-0.0057,-0.0062,-0.0086,-0.0094,-0.0097,-0.0118,-0.0134,-0.0174,-0.0175,-0.0181,-0.018,-0.0218,-0.0217,-0.0217,-0.0189,-0.0186,-0.0183,0,0,0,0,0,0,0.0058,0.0018,0.0006,-0.0007,-0.0028,-0.0063,-0.0066,-0.0082,-0.0101,-0.0103,-0.0132,-0.0139,-0.0151,-0.0167,-0.0168,-0.0186,-0.0198,-0.0198,-0.0175,-0.0172,-0.017,-0.0166,-0.0192,0,0,0,0,0,0.0064,0.0049,0.0015,0.0007,-0.0003,-0.0033,-0.0043,-0.0061,-0.0083,-0.0092,-0.0114,-0.0135,-0.0153,-0.0163,-0.0181,-0.0191,-0.0198,-0.0193,-0.019,-0.0188,-0.0188,-0.0194,-0.0192,-0.0214,-0.0214,-0.0214,0,0,0.0076,0.0052,0.0045,0.0013,-0.0005,-0.002,-0.004,-0.0054,-0.0065,-0.0094,-0.011,-0.0127,-0.0153,-0.0165,-0.0172,-0.0179,-0.0183,-0.0187,-0.0185,-0.0186,-0.0193,-0.0191,-0.0189,-0.0214,-0.0214,-0.0214,0,0,0.009,0.0071,0.0061,0.0044,0.0016,-0.0004,-0.0006,-0.0038,-0.005,-0.0067,-0.0089,-0.0102,-0.0131,-0.0148,-0.0161,-0.0153,-0.0169,-0.0158,-0.0144,-0.015,-0.0148,-0.0147,-0.0144,-0.0143,-0.0158,-0.0158,-0.0158,0,0.0108,0.0085,0.0059,0.0046,0.0032,0.0005,-0.0004,-0.002,-0.0052,-0.006,-0.0067,-0.0104,-0.0123,-0.014,-0.0138,-0.0148,-0.0151,-0.0154,-0.0147,-0.0146,-0.0145,-0.0142,-0.0141,-0.0156,-0.0156,-0.0156,-0.0157,0,0.0109,0.0094,0.009,0.006,0.0046,0.0035,0.0007,-0.0004,-0.002,-0.0038,-0.0055,-0.0079,-0.0101,-0.0107,-0.0122,-0.0126,-0.0129,-0.0141,-0.0154,-0.0141,-0.0139,-0.0138,-0.0154,-0.0155,-0.0155,-0.0155,0,0,0.0143,0.0098,0.0097,0.0083,0.0051,0.0038,0.0026,0.0003,-0.0005,-0.0026,-0.0037,-0.0061,-0.0072,-0.0086,-0.0104,-0.0109,-0.0101,-0.012,-0.0121,-0.0116,-0.0106,-0.0097,-0.0096,-0.0112,-0.0112,-0.0112,-0.0104,0,0.0152,0.0128,0.0104,0.0089,0.0075,0.0049,0.0038,0.0017,-0.0,-0.0015,-0.0035,-0.0051,-0.0065,-0.0074,-0.008,-0.0101,-0.0099,-0.0101,-0.0122,-0.0122,-0.0115,-0.0095,-0.0085,-0.0077,-0.0104,-0.0104,-0.0104,0,0.016,0.014,0.0123,0.0092,0.0085,0.0076,0.0054,0.004,0.0016,0.0003,-0.0013,-0.0031,-0.0045,-0.0056,-0.0075,-0.0076,-0.0086,-0.0097,-0.0098,-0.01,-0.0112,-0.0097,-0.0075,-0.0074,-0.0103,-0.0103,-0.0103,0,0.0186,0.0155,0.0141,0.013,0.0094,0.0088,0.0072,0.0048,0.0036,0.0016,0.0008,-0.0013,-0.0024,-0.004,-0.0064,-0.0069,-0.008,-0.0093,-0.0091,-0.009,-0.0092,-0.0092,-0.0071,-0.0098,-0.0098,-0.0098,-0.0098,0,0.0199,0.019,0.0152,0.0144,0.0133,0.0106,0.0096,0.0078,0.0057,0.0045,0.0021,0.001,-0.0021,-0.0035,-0.0054,-0.0067,-0.0072,-0.0082,-0.0087,-0.008,-0.0079,-0.0087,-0.0088,-0.0098,-0.0098,-0.0098,-0.0098,0,0.0226,0.0201,0.0184,0.0151,0.0142,0.0136,0.0108,0.0099,0.0079,0.0064,0.0059,0.0029,0.0011,-0.0014,-0.004,-0.0053,-0.0063,-0.0071,-0.0055,-0.0058,-0.0054,-0.0054,-0.0039,-0.0038,-0.0065,-0.0065,-0.0064,0,0.0236,0.0229,0.0195,0.0185,0.017,0.0154,0.0142,0.0114,0.0102,0.0075,0.0069,0.0049,0.0031,0.0004,-0.002,-0.004,-0.0049,-0.0042,-0.0052,-0.0045,-0.0049,-0.0048,-0.0049,-0.0039,-0.0039,-0.0039,-0.0038,0,0.0257,0.0244,0.0227,0.0205,0.0191,0.0173,0.0153,0.0147,0.0115,0.0103,0.0084,0.007,0.0044,0.0024,0.0001,-0.0015,-0.0031,-0.0035,-0.0035,-0.0028,-0.0019,-0.0024,-0.0049,-0.0035,-0.0035,-0.0036,-0.0036,-0.0036,0.0275,0.0268,0.0242,0.0224,0.0206,0.0189,0.0179,0.0158,0.0142,0.0118,0.0103,0.0084,0.0061,0.0028,0.0013,-0.0001,-0.0008,-0.0009,-0.0009,-0.0009,-0.0007,-0.0017,-0.0006,-0.0006,-0.0006,-0.0006,-0.0006,0,0.0295,0.0277,0.026,0.0234,0.0219,0.0204,0.0182,0.0171,0.0155,0.0135,0.0118,0.0096,0.0077,0.0052,0.0031,0.0024,0.0016,0.0019,0.002,0.0016,0.0001,0.0003,0.0026,0.0026,0.0026,0.0026,0.0026,0.0026,0.0303,0.0289,0.0274,0.025,0.0233,0.0215,0.0203,0.0187,0.017,0.0147,0.0131,0.0114,0.0092,0.0069,0.0051,0.0044,0.0038,0.0044,0.0034,0.002,0.0017,0.0015,0.0017,0.0042,0.0042,0.0051,0.0051,0.0051]}]]